Location: Cerezo de Arriba
(41.2389°N, 3.5585°W)
Time: 04:09:13
(UTC+00:00)

Cosmos 2082 Rocket - Pass Details

Date: 19 May 2025
Orbit: 831 x 853 km, 71.0° (Epoch: 23 June)

Event Time Altitude Azimuth Distance (km) Brightness Sun altitude
Exits shadow 21:41:41 34° 116° (ESE) 1,349 2.8 -19.7°
Maximum altitude 21:42:11 34° 104° (ESE) 1,334 2.8 -19.8°
Drops below altitude 10° 21:47:11 10° 41° (NE) 2,449 4.7 -20.3°
Sets 21:49:49 0° 33° (NNE) 3,390 5.6 -20.6°
